Location: Grassland Mountain Observatory
(35.7543°N, 82.8038°W)
Time: 17:31:08
(UTC-05:00)

X-37B - Pass Details

Date: 16 December 2021
Orbit: 331 x 339 km, 45.0° (Epoch: 27 January)

Event Time Altitude Azimuth Distance (km) Brightness Sun altitude
Rises 18:11:31 0° 307° (NW) 2,100 4.8 -10.4°
Reaches altitude 10° 18:13:50 10° 326° (NW) 1,260 3.3 -10.9°
Maximum altitude 18:16:02 20° 17° (NNE) 845 1.9 -11.3°
Enters shadow 18:16:51 18° 42° (NE) 915 1.9 -11.4°
